FLOCK 4P-8 (44815 NORAD) Tracking and Keplerian Element Data

This shows tracking and keplerian element data for the satellite.

Feedback or suggestion? Click here.




ElementValue
Catalog44815
NameFLOCK 4P-8
Epoch Orbit1254
Epoch Day48.77473348
Epoch Year2020
RAAN110.4956
Inclination97.5127
Eccentricity0.0010406
Argument of Perigee317.1129
Mean Anonmoly42.9294
Mean Motion15.19737309
Decay Rate5.49E-06
L11 44815U 19081M 20048.77473348 .00000549 00000-0 28947-4 0 9990
L22 44815 97.5127 110.4956 0010406 317.1129 42.9294 15.19737309 12543

Live tracking and technical data element details for FLOCK 4P-8 (NORAD 44815). FLOCK 4P-8 can be tracked NOW for your location showing map with azimuth and elevation plus other details from your city location.

Track the satellite on the map from your city or location and see movement details for azimuth, elevation, latitude, longitude, range, height, and movement on the map or in text.







IsCatalogInMostPopularTable: catalog: 44815, numindb: 26
Update: records affected: 1



GetName: 44815 FLOCK 4P-8

Hit Count: updated at: Wed, 19 Feb 2020 22:42:41 GMT